{"data":{"norad_id":38011,"epoch":"2026-05-25T04:55:22.996992Z","epoch_age_seconds":54545,"freshness":"FRESH","line1":"1 38011U 11076E   26145.20512728  .00000896  00000+0  11820-3 0  9990","line2":"2 38011  97.8074 206.1519 0001414  97.0596 348.8204 14.82447351780979","mean_motion":14.82447351,"eccentricity":0.0001414,"inclination_deg":97.8074,"raan_deg":206.1519,"arg_perigee_deg":97.0596,"mean_anomaly_deg":348.8204,"bstar":0.0001182,"rev_number":78097,"period_min":97.136670589255,"perigee_km":620.61990248434,"apogee_km":622.59943084167,"semimajor_km":6999.746666663,"source":"CELESTRAK","updated_at":"2026-05-25T13:37:55.290544Z"}}